Theta_e
346 347 351 350 349 349 347 346 346 344 345 344 344 344 341 340 340 340 341 340 341 339 338 338 338 337 338 339 337 336 336 339 341 343 342 342 342 343 343 345 343 343 344
338 344 348 348 350 352 351 349 346 346 346 345 346 345 344 344 343 342 340 340 341 342 341 338 338 337 337 338 339 336 334 337 337 340 341 341 342 341 341 342 342 343 343
337 343 345 338 345 350 350 350 349 347 346 347 348 347 346 345 341 340 340 339 340 338 338 337 336 337 336 338 338 339 336 338 337 337 340 338 339 340 340 342 342 344 343
334 335 341 336 332 342 344 335 347 349 349 348 348 344 342 341 339 335 336 336 336 336 336 336 337 337 337 337 338 338 339 337 339 339 341 338 341 340 339 339 343 342 341
342 335 343 341 339 343 346 335 345 350 350 346 341 337 336 336 335 334 336 336 336 337 337 334 336 338 337 336 337 339 339 340 338 338 339 338 339 339 340 338 334 335 339
349 348 346 348 350 349 346 341 342 349 344 339 337 335 334 335 337 336 337 338 338 337 336 335 337 338 338 337 337 338 339 340 341 340 339 338 337 338 339 338 335 334 339
352 349 350 352 349 347 341 347 349 343 339 339 337 334 336 337 337 337 337 337 337 337 335 335 336 337 337 337 338 338 338 339 340 340 339 338 337 339 339 338 335 337 340
353 352 347 343 345 349 348 347 344 339 340 339 336 334 336 336 336 336 336 337 336 337 337 337 337 338 338 337 337 337 337 338 339 339 338 338 338 338 338 338 337 339 339
354 351 347 346 348 347 346 344 342 341 338 339 338 334 336 333 332 335 336 336 336 336 336 336 336 336 337 338 337 336 336 337 339 340 339 339 339 338 338 337 338 339 339
344 348 349 348 346 344 343 341 337 340 339 339 340 335 335 334 333 332 335 337 337 337 337 338 338 338 338 337 336 336 337 338 339 339 339 339 338 339 339 337 338 337 337
349 349 347 345 344 342 339 338 340 339 339 339 341 338 335 335 334 333 333 335 335 337 338 337 337 337 338 338 337 336 338 338 339 339 339 338 339 339 337 336 335 334 337
345 343 344 344 344 343 342 342 340 337 334 338 339 340 340 338 336 334 333 333 333 336 338 337 337 338 338 337 338 338 338 339 339 339 339 339 339 337 335 335 336 335 336
338 344 344 344 346 346 345 345 345 339 340 339 339 340 339 338 337 335 333 333 333 335 336 338 337 337 337 338 338 337 337 337 338 337 335 335 334 332 333 335 336 337 336
334 344 345 344 345 347 345 343 343 339 341 341 341 338 338 338 338 336 334 333 333 334 335 335 336 337 337 337 337 337 336 336 335 337 337 336 334 334 335 336 334 334 332
332 343 344 346 346 347 344 344 344 340 342 343 340 340 336 338 338 337 335 334 332 332 332 332 333 334 334 334 335 335 334 334 335 335 334 333 333 333 334 334 333 331 331
341 345 345 347 348 346 346 345 345 342 342 342 341 339 337 336 337 335 335 334 333 332 332 333 333 333 333 333 333 333 333 333 333 333 333 333 332 331 331 331 331 331 330
345 344 345 346 346 345 346 346 346 345 342 343 341 340 338 335 333 333 335 334 334 333 333 333 332 332 332 331 330 329 331 332 332 332 332 332 333 332 332 332 331 329 329
342 346 345 344 344 343 343 344 343 342 344 343 341 341 337 335 333 334 334 334 333 331 331 330 332 332 331 330 331 329 327 328 328 329 326 325 326 326 324 323 322 322 326
343 343 342 342 341 340 338 334 332 333 341 343 342 340 338 335 335 335 335 333 331 328 325 327 329 330 330 329 327 327 326 327 327 326 324 323 322 321 317 314 316 314 311
341 342 340 339 334 328 327 328 329 331 332 339 341 339 339 337 335 336 335 335 332 330 325 323 325 329 329 327 327 327 325 326 324 321 320 318 319 318 315 315 313 313 313
338 337 336 327 327 328 328 330 332 334 334 334 338 339 339 338 336 336 335 334 331 330 329 326 326 327 326 326 325 325 324 322 319 317 316 316 316 316 317 316 313 314 315
332 328 327 327 328 330 329 331 332 332 334 335 337 337 338 337 336 335 333 331 331 329 327 325 324 324 323 322 319 320 318 316 313 312 311 311 311 313 314 315 314 312 312
326 326 326 327 328 328 328 330 331 331 332 332 333 334 334 334 331 332 330 330 328 326 325 322 322 321 319 319 318 318 318 311 311 313 314 314 311 310 305 305 304 305 308
326 326 325 326 326 327 328 328 328 328 328 329 328 329 329 324 325 326 323 324 323 324 321 321 320 319 318 318 317 316 315 314 313 309 306 304 304 303 302 302 302 302 302
324 325 326 325 326 325 326 326 326 325 326 325 324 324 323 323 323 319 318 319 318 317 318 318 317 317 316 312 309 308 305 305 304 303 303 303 303 302 302 302 301 301 300
324 323 324 323 323 323 323 323 322 323 323 323 321 320 319 317 316 315 311 305 303 303 303 303 303 303 302 301 303 303 303 303 303 303 303 303 302 302 302 301 301 300 300
Wind_Speed
17 19 30 31 28 27 27 26 23 16 15 11 13 13 13 13 14 16 16 18 18 17 18 18 18 18 18 21 20 19 18 18 16 15 12 9 9 9 11 14 13 15 16
19 13 19 22 20 28 31 26 17 16 14 13 14 14 12 15 16 19 20 23 21 19 19 21 21 20 21 22 22 24 23 20 21 16 11 8 12 11 10 12 12 16 18
26 17 28 24 26 30 21 27 15 12 11 11 11 11 12 15 16 19 20 20 23 22 22 23 22 22 22 23 23 25 25 22 22 21 12 7 7 8 9 11 11 13 16
23 32 31 13 10 20 20 5 11 10 9 7 8 8 9 10 11 15 16 17 20 21 22 20 19 21 22 24 24 24 23 25 21 22 20 10 6 6 6 5 5 10 16
40 40 37 14 15 16 23 15 13 10 6 4 4 5 9 10 14 14 14 16 17 17 23 23 19 19 22 23 24 26 26 25 25 24 23 22 17 13 10 7 7 13 16
32 38 30 15 15 17 18 15 12 6 4 1 1 4 10 12 11 7 9 13 10 11 16 18 17 16 20 23 25 25 24 22 24 25 23 21 21 18 14 14 9 15 20
20 20 20 18 16 16 13 15 8 4 2 4 4 9 11 11 10 9 7 7 3 4 11 14 15 16 18 20 23 23 25 24 23 25 24 23 20 18 15 14 10 12 19
25 25 26 20 11 13 9 9 5 2 5 5 9 9 8 13 14 13 8 6 5 2 5 9 9 11 14 17 20 22 23 24 23 25 25 24 22 20 18 13 9 13 15
20 24 20 17 15 11 8 5 3 5 5 5 7 7 9 10 15 16 14 11 5 1 2 4 6 7 10 15 18 18 20 21 22 25 24 23 22 20 18 15 15 15 14
24 23 24 18 14 10 8 4 4 4 4 5 6 8 7 8 9 13 12 11 10 7 2 2 3 5 8 12 14 15 15 17 19 19 21 21 20 21 19 22 19 15 15
15 21 19 15 10 8 8 9 3 3 2 3 5 6 7 10 8 10 10 11 10 8 7 3 3 2 7 10 11 12 13 15 13 20 21 20 20 18 16 20 16 12 16
10 9 16 14 10 8 7 4 4 3 3 1 2 5 7 9 9 7 9 9 10 9 9 8 8 8 7 8 10 12 12 15 15 15 16 17 19 19 15 13 13 16 19
16 14 14 15 12 7 4 1 6 2 2 0 3 2 2 5 7 6 8 8 9 10 11 10 8 9 8 7 7 7 10 10 10 10 12 12 12 11 15 15 15 13 12
15 23 21 20 14 7 2 4 7 6 4 1 3 2 1 1 2 4 5 8 10 12 12 12 12 11 9 7 5 3 8 11 13 14 15 15 17 17 13 12 12 11 7
29 22 23 18 15 12 8 6 6 9 7 3 1 1 1 2 3 4 5 7 11 11 10 10 11 11 9 9 6 5 7 11 14 15 14 11 11 11 11 12 11 9 9
21 17 15 12 16 13 12 13 13 14 14 7 6 3 2 3 3 6 7 6 7 8 7 7 6 6 6 7 6 5 4 4 3 4 7 8 8 9 10 10 11 11 10
21 17 21 23 17 15 12 13 16 17 15 18 11 9 8 10 6 7 8 7 7 6 6 6 6 5 5 5 5 4 4 4 4 4 3 4 5 7 7 6 5 7 8
24 24 20 16 12 11 11 14 14 11 13 18 14 17 16 13 11 10 9 9 7 7 6 6 4 3 4 3 6 6 5 4 4 4 4 6 6 7 6 4 3 3 4
26 20 13 10 9 8 11 12 13 12 14 17 16 22 18 17 15 14 12 10 7 5 3 4 6 7 6 5 4 4 5 5 5 5 6 6 7 8 7 3 5 9 10
17 13 11 8 7 7 8 8 7 8 9 17 21 25 23 20 19 18 18 15 10 6 4 5 5 8 10 10 6 4 2 3 6 8 8 8 5 6 6 4 5 4 5
12 10 7 5 3 4 6 5 1 2 4 8 18 28 29 25 23 20 18 15 11 5 5 6 7 10 10 11 8 5 4 3 8 9 11 11 7 4 3 2 1 2 2
9 8 5 3 3 5 6 2 1 2 3 9 16 25 27 28 25 19 20 15 9 8 9 9 9 11 12 11 8 7 6 6 7 9 9 9 6 2 0 2 1 2 2
10 8 6 7 7 6 5 2 4 3 3 9 19 25 28 26 27 22 20 16 12 10 9 9 9 11 11 9 6 3 3 9 6 6 4 5 6 6 5 4 4 3 3
8 7 8 8 9 8 7 6 8 7 7 10 15 14 15 17 19 18 15 12 10 10 11 11 12 12 11 11 9 10 10 9 8 8 11 12 11 10 10 10 10 9 7
9 10 10 9 11 10 12 10 9 8 10 12 13 14 16 17 16 17 16 13 15 12 12 13 13 13 14 14 14 14 14 14 12 11 9 9 8 7 8 9 8 9 6
11 12 10 11 13 13 13 13 12 11 13 16 17 16 16 16 16 15 18 18 15 13 12 12 9 12 12 15 17 16 14 13 10 9 7 6 3 4 5 5 4 7 8
Wind_Direction
202 237 219 201 202 204 209 208 206 215 217 208 231 240 256 264 270 270 269 271 258 256 256 251 249 247 233 227 222 220 222 213 206 211 209 222 229 223 226 222 232 238 240
220 305 229 204 218 220 212 206 201 206 219 225 236 247 255 255 263 266 266 269 256 252 253 254 250 249 237 229 224 214 217 220 211 209 208 207 222 223 221 232 247 254 251
191 226 209 184 220 227 228 193 189 210 209 236 240 259 269 270 271 269 264 261 259 259 258 259 249 243 238 227 226 220 219 217 214 207 201 195 211 186 212 230 244 258 262
183 211 206 233 232 212 242 32 211 193 207 227 248 267 280 284 289 283 276 261 253 253 250 248 246 239 233 230 225 223 224 219 216 211 212 215 181 186 188 191 228 266 274
212 199 205 232 212 174 204 212 181 200 213 242 278 339 321 320 308 293 278 274 262 255 243 240 240 234 229 224 222 222 223 220 223 223 225 226 230 229 241 236 260 292 293
169 186 205 184 164 161 192 173 169 162 244 350 31 359 346 344 341 332 311 301 258 245 221 222 235 234 225 222 220 221 224 224 226 227 230 231 225 228 229 239 237 276 284
162 188 191 165 162 173 171 156 146 189 143 127 72 27 16 9 5 359 358 1 303 220 210 218 234 232 222 220 223 225 224 224 229 229 230 233 235 234 230 231 229 265 272
173 160 156 164 158 157 146 134 135 181 146 121 55 45 47 43 31 32 33 27 33 110 199 213 226 227 223 222 224 226 227 228 231 230 232 235 233 229 236 225 228 263 270
154 143 153 159 152 149 157 143 171 148 136 97 64 58 67 58 49 46 45 39 30 19 180 207 228 225 224 222 220 227 228 227 232 230 226 229 230 227 218 214 218 244 273
148 140 147 147 139 149 147 154 120 139 133 107 70 57 72 54 44 44 50 51 45 31 313 213 219 220 213 212 216 221 224 227 234 215 219 222 227 223 225 214 220 239 257
142 147 151 149 136 150 152 134 68 22 153 87 72 56 64 44 45 46 49 49 38 42 65 94 115 170 198 203 200 211 221 226 221 216 221 222 222 221 214 216 217 240 256
151 219 167 164 150 140 127 101 39 30 2 50 68 54 35 27 37 48 45 42 44 47 69 66 77 95 123 164 180 189 200 206 196 206 218 220 212 188 195 219 224 230 237
132 205 213 189 174 163 137 323 335 284 351 208 46 79 55 8 27 51 44 49 45 66 74 81 86 82 101 116 132 166 192 205 194 188 188 185 181 200 216 229 220 201 191
164 215 218 208 203 185 186 303 322 235 217 209 353 49 69 15 38 68 56 69 71 85 87 87 88 93 94 91 94 160 176 172 170 171 179 183 196 195 180 191 208 227 247
197 221 216 212 209 203 208 231 253 227 219 194 227 108 87 144 85 109 108 85 105 111 96 87 91 99 104 100 101 127 156 162 165 165 168 163 166 176 189 211 230 222 225
197 201 199 210 201 208 209 221 219 211 217 222 254 229 244 145 136 155 151 135 129 128 113 109 97 104 114 117 119 115 131 156 188 219 237 251 252 246 244 247 247 244 244
182 223 192 202 202 200 195 212 227 222 212 215 229 230 212 188 213 166 158 152 142 138 134 121 113 107 105 117 113 117 157 150 134 149 190 211 214 211 222 260 266 277 254
195 189 187 192 200 215 224 229 238 232 208 208 217 200 186 196 188 179 170 155 148 151 150 149 152 158 153 128 91 61 70 96 115 115 95 95 101 98 85 71 72 108 107
176 175 181 202 233 252 256 257 260 252 222 202 199 194 201 198 197 190 180 173 165 146 145 165 169 168 165 131 125 89 73 75 115 107 107 104 104 98 95 105 133 129 113
161 181 199 217 247 264 276 280 273 243 230 207 202 195 197 204 206 198 188 182 184 174 177 194 183 163 156 163 173 174 172 220 165 148 141 130 123 117 109 119 116 117 112
172 186 204 210 241 289 320 338 15 187 205 201 208 198 201 206 213 203 187 181 183 187 169 181 186 178 180 182 183 200 211 185 162 147 136 124 123 122 123 124 354 351 75
175 172 163 137 58 45 62 48 89 105 174 178 190 183 192 195 196 193 179 180 194 194 178 170 173 172 180 185 160 146 130 151 168 153 144 142 141 133 260 311 306 160 186
152 136 112 88 90 92 110 165 112 109 152 180 179 181 180 183 171 179 174 170 177 166 158 160 167 169 168 175 160 180 149 144 162 151 148 125 114 101 80 68 41 41 43
130 106 91 101 105 111 113 118 117 130 150 157 157 161 169 156 154 158 153 140 142 149 151 150 151 149 146 146 141 136 133 135 132 114 107 104 97 90 81 77 69 58 44
120 111 112 113 117 117 106 104 108 119 137 134 136 141 142 139 137 129 124 129 127 124 129 134 133 138 140 135 132 131 128 124 120 113 108 100 84 69 68 64 58 37 53
130 120 115 131 127 124 120 118 116 122 125 125 124 124 123 122 124 126 123 118 116 120 128 129 132 138 137 133 130 127 122 113 98 93 97 100 94 94 71 90 43 23 20